QPF
0.00 0.00 0.00 0.00 0.00 0.00 0.00 0.00 0.00 0.00 0.00 0.00 0.00 0.00 0.00 0.00 0.00 0.00 0.00 0.00 0.00 0.00 0.00 0.00 0.00 0.00 0.00 0.00 0.00 0.01 0.03 0.01 0.00 0.01 0.04 0.03 0.02 0.02 0.02 0.02 0.00 0.00 0.00 0.00
0.00 0.00 0.00 0.00 0.00 0.00 0.00 0.00 0.00 0.00 0.00 0.00 0.00 0.00 0.00 0.00 0.00 0.00 0.00 0.00 0.00 0.00 0.00 0.00 0.00 0.00 0.00 0.00 0.00 0.00 0.01 0.02 0.02 0.04 0.03 0.02 0.01 0.01 0.01 0.01 0.00 0.00 0.00 0.00
0.00 0.00 0.00 0.00 0.00 0.00 0.00 0.00 0.00 0.00 0.00 0.00 0.00 0.00 0.00 0.00 0.00 0.00 0.00 0.00 0.00 0.00 0.00 0.00 0.00 0.00 0.00 0.00 0.00 0.00 0.02 0.02 0.03 0.03 0.03 0.01 0.00 0.00 0.00 0.00 0.00 0.00 0.00 0.00
0.00 0.00 0.00 0.00 0.00 0.00 0.00 0.00 0.00 0.00 0.00 0.00 0.00 0.00 0.00 0.00 0.00 0.00 0.00 0.00 0.00 0.00 0.00 0.00 0.00 0.00 0.00 0.00 0.00 0.00 0.00 0.01 0.01 0.02 0.02 0.01 0.00 0.00 0.00 0.00 0.00 0.00 0.00 0.00
0.01 0.00 0.00 0.00 0.00 0.00 0.00 0.00 0.00 0.00 0.00 0.00 0.00 0.00 0.00 0.00 0.00 0.00 0.00 0.00 0.00 0.00 0.00 0.00 0.00 0.00 0.00 0.00 0.00 0.00 0.00 0.00 0.00 0.00 0.00 0.00 0.00 0.00 0.00 0.00 0.00 0.00 0.00 0.00
0.00 0.01 0.00 0.00 0.00 0.00 0.00 0.00 0.00 0.00 0.00 0.01 0.01 0.00 0.00 0.00 0.00 0.00 0.00 0.00 0.00 0.00 0.00 0.00 0.00 0.00 0.00 0.00 0.00 0.00 0.00 0.00 0.00 0.00 0.00 0.00 0.00 0.00 0.00 0.00 0.00 0.00 0.00 0.00
0.01 0.01 0.00 0.00 0.00 0.00 0.01 0.00 0.00 0.00 0.00 0.00 0.01 0.00 0.00 0.00 0.00 0.00 0.00 0.00 0.00 0.00 0.00 0.00 0.00 0.00 0.00 0.00 0.00 0.00 0.00 0.00 0.00 0.00 0.00 0.00 0.00 0.00 0.00 0.00 0.00 0.00 0.00 0.00
0.00 0.00 0.00 0.00 0.00 0.00 0.00 0.00 0.00 0.00 0.00 0.00 0.00 0.00 0.00 0.00 0.00 0.00 0.00 0.00 0.00 0.00 0.00 0.00 0.00 0.00 0.00 0.00 0.00 0.00 0.00 0.01 0.01 0.00 0.00 0.00 0.00 0.00 0.00 0.00 0.00 0.00 0.00 0.00
0.00 0.00 0.00 0.00 0.00 0.00 0.00 0.00 0.00 0.00 0.00 0.00 0.00 0.00 0.00 0.00 0.00 0.00 0.00 0.00 0.00 0.00 0.00 0.00 0.00 0.00 0.00 0.00 0.00 0.00 0.00 0.00 0.00 0.00 0.00 0.00 0.00 0.00 0.00 0.00 0.00 0.00 0.00 0.00
0.00 0.00 0.00 0.00 0.00 0.00 0.00 0.00 0.00 0.00 0.00 0.00 0.00 0.00 0.00 0.00 0.00 0.00 0.00 0.00 0.00 0.00 0.00 0.00 0.00 0.00 0.00 0.00 0.00 0.00 0.00 0.00 0.00 0.00 0.00 0.00 0.00 0.00 0.00 0.00 0.00 0.00 0.00 0.00
0.00 0.00 0.00 0.00 0.00 0.00 0.00 0.00 0.00 0.00 0.00 0.00 0.00 0.00 0.00 0.00 0.00 0.00 0.00 0.00 0.00 0.00 0.01 0.00 0.00 0.00 0.00 0.00 0.00 0.00 0.01 0.00 0.00 0.00 0.00 0.00 0.00 0.00 0.00 0.00 0.00 0.00 0.00 0.00
0.00 0.00 0.00 0.00 0.00 0.00 0.00 0.00 0.00 0.00 0.00 0.00 0.00 0.00 0.00 0.00 0.00 0.00 0.00 0.00 0.00 0.00 0.00 0.00 0.00 0.00 0.00 0.00 0.00 0.00 0.00 0.00 0.00 0.00 0.00 0.00 0.00 0.00 0.00 0.00 0.00 0.00 0.00 0.00
0.00 0.00 0.00 0.00 0.00 0.00 0.00 0.00 0.00 0.00 0.00 0.00 0.00 0.00 0.00 0.00 0.00 0.00 0.00 0.00 0.00 0.00 0.00 0.00 0.00 0.00 0.00 0.00 0.00 0.00 0.00 0.00 0.00 0.00 0.00 0.00 0.00 0.00 0.00 0.00 0.00 0.00 0.00 0.00
0.00 0.00 0.00 0.00 0.00 0.00 0.00 0.00 0.00 0.00 0.00 0.00 0.00 0.00 0.00 0.00 0.00 0.00 0.00 0.00 0.00 0.00 0.00 0.00 0.00 0.00 0.00 0.00 0.00 0.00 0.00 0.00 0.00 0.00 0.00 0.00 0.00 0.00 0.00 0.00 0.00 0.00 0.00 0.00
0.00 0.00 0.00 0.00 0.00 0.00 0.00 0.00 0.00 0.00 0.00 0.00 0.00 0.00 0.00 0.00 0.00 0.00 0.00 0.00 0.00 0.00 0.00 0.00 0.00 0.00 0.00 0.00 0.00 0.00 0.00 0.00 0.00 0.00 0.00 0.00 0.00 0.00 0.00 0.00 0.00 0.00 0.00 0.00
0.00 0.00 0.00 0.00 0.00 0.00 0.00 0.00 0.00 0.00 0.00 0.00 0.00 0.00 0.00 0.00 0.00 0.00 0.00 0.00 0.00 0.00 0.00 0.00 0.00 0.00 0.00 0.00 0.00 0.00 0.00 0.00 0.00 0.00 0.00 0.00 0.00 0.00 0.00 0.00 0.00 0.00 0.00 0.00
0.00 0.00 0.00 0.00 0.00 0.00 0.00 0.00 0.00 0.00 0.00 0.00 0.00 0.00 0.00 0.00 0.00 0.00 0.00 0.00 0.00 0.00 0.00 0.00 0.00 0.00 0.00 0.00 0.00 0.00 0.00 0.00 0.00 0.00 0.00 0.00 0.00 0.00 0.00 0.00 0.00 0.00 0.00 0.00
0.00 0.00 0.00 0.00 0.00 0.00 0.00 0.00 0.00 0.00 0.00 0.00 0.00 0.00 0.00 0.00 0.00 0.00 0.00 0.00 0.00 0.00 0.00 0.00 0.00 0.00 0.00 0.00 0.00 0.00 0.00 0.00 0.00 0.00 0.00 0.00 0.00 0.00 0.00 0.00 0.00 0.00 0.00 0.00
0.00 0.00 0.00 0.00 0.00 0.00 0.00 0.00 0.00 0.00 0.00 0.00 0.00 0.00 0.00 0.00 0.00 0.00 0.00 0.00 0.00 0.00 0.00 0.00 0.00 0.00 0.00 0.00 0.00 0.00 0.00 0.00 0.00 0.00 0.00 0.00 0.00 0.00 0.00 0.00 0.00 0.00 0.00 0.00
0.00 0.00 0.00 0.00 0.00 0.00 0.00 0.00 0.00 0.00 0.00 0.00 0.00 0.00 0.00 0.00 0.00 0.00 0.00 0.00 0.00 0.00 0.00 0.00 0.00 0.00 0.00 0.00 0.00 0.00 0.00 0.00 0.00 0.00 0.00 0.00 0.00 0.00 0.00 0.00 0.00 0.00 0.00 0.00
0.00 0.00 0.00 0.00 0.00 0.00 0.00 0.00 0.00 0.00 0.00 0.00 0.00 0.00 0.00 0.00 0.00 0.00 0.00 0.00 0.00 0.00 0.00 0.00 0.00 0.00 0.00 0.00 0.00 0.00 0.00 0.00 0.00 0.00 0.00 0.00 0.00 0.00 0.00 0.00 0.00 0.00 0.00 0.00
0.00 0.00 0.00 0.00 0.00 0.00 0.00 0.00 0.00 0.00 0.00 0.00 0.00 0.00 0.00 0.00 0.00 0.00 0.00 0.00 0.00 0.00 0.00 0.00 0.00 0.00 0.00 0.00 0.00 0.00 0.00 0.00 0.00 0.00 0.00 0.00 0.00 0.00 0.00 0.00 0.00 0.00 0.00 0.00
0.00 0.00 0.00 0.00 0.00 0.00 0.00 0.00 0.00 0.00 0.00 0.00 0.00 0.00 0.00 0.00 0.00 0.00 0.00 0.00 0.00 0.00 0.00 0.00 0.00 0.00 0.00 0.00 0.00 0.00 0.00 0.00 0.00 0.00 0.00 0.00 0.00 0.00 0.00 0.00 0.00 0.00 0.00 0.00
0.00 0.00 0.00 0.00 0.00 0.00 0.00 0.00 0.00 0.00 0.00 0.00 0.00 0.00 0.00 0.00 0.00 0.00 0.00 0.00 0.00 0.00 0.00 0.00 0.00 0.00 0.00 0.00 0.00 0.00 0.00 0.00 0.00 0.00 0.00 0.00 0.00 0.00 0.00 0.00 0.00 0.00 0.00 0.00
0.00 0.00 0.00 0.00 0.00 0.00 0.00 0.00 0.00 0.00 0.00 0.00 0.00 0.00 0.00 0.00 0.00 0.00 0.00 0.00 0.00 0.00 0.00 0.00 0.00 0.00 0.00 0.00 0.00 0.00 0.00 0.00 0.00 0.00 0.00 0.00 0.00 0.00 0.00 0.00 0.00 0.00 0.00 0.00
0.00 0.00 0.00 0.00 0.00 0.00 0.00 0.00 0.00 0.00 0.00 0.00 0.00 0.00 0.00 0.00 0.00 0.00 0.00 0.00 0.00 0.00 0.00 0.00 0.00 0.00 0.00 0.00 0.00 0.00 0.00 0.00 0.00 0.00 0.00 0.00 0.00 0.00 0.00 0.00 0.00 0.00 0.00 0.00
0.00 0.00 0.00 0.00 0.00 0.00 0.00 0.00 0.00 0.00 0.00 0.00 0.00 0.00 0.00 0.00 0.00 0.00 0.00 0.00 0.00 0.00 0.00 0.00 0.00 0.00 0.00 0.00 0.00 0.00 0.00 0.00 0.00 0.00 0.00 0.00 0.00 0.00 0.00 0.00 0.00 0.00 0.00 0.00
MSLP
1013.94 1013.98 1013.86 1013.39 1012.69 1012.17 1012.38 1011.63 1011.47 1009.25 1009.21 1007.07 1004.53 1003.19 1003.28 1002.82 1001.87 1000.79 999.73 998.43 997.57 997.40 997.30 997.47 998.03 998.12 997.98 998.53 999.07 999.74 1000.50 1001.35 1001.91 1002.83 1003.95 1004.98 1005.88 1006.73 1007.58 1009.07 1009.75 1010.75 1013.06 1012.95
1014.13 1014.04 1013.51 1012.70 1011.55 1011.26 1011.13 1010.37 1010.25 1009.33 1007.45 1006.34 1004.69 1003.03 1002.80 1002.03 1001.24 1000.36 999.56 998.55 997.09 997.06 997.15 997.50 998.24 998.07 998.13 998.59 998.96 999.44 1000.19 1001.12 1002.21 1003.01 1003.87 1004.89 1006.22 1007.07 1008.08 1009.21 1010.77 1011.37 1013.23 1014.56
1014.20 1014.38 1013.27 1011.87 1009.98 1010.04 1009.35 1009.04 1008.64 1007.46 1006.25 1005.01 1004.49 1003.09 1002.71 1001.86 1001.34 1000.32 999.40 998.25 997.43 996.63 996.65 996.84 997.06 997.22 997.60 998.14 998.95 999.70 1000.22 1000.80 1001.67 1002.74 1003.72 1004.56 1005.84 1007.18 1008.56 1009.57 1010.57 1011.99 1013.69 1014.24
1014.78 1014.70 1012.79 1009.70 1009.18 1008.81 1008.31 1007.59 1007.35 1006.79 1005.50 1004.52 1004.02 1002.88 1002.18 1002.09 1001.28 1000.46 999.89 998.81 997.38 996.59 996.27 996.70 996.82 996.73 996.97 997.57 998.25 998.96 999.89 1000.63 1001.38 1002.48 1003.69 1004.66 1005.80 1007.01 1008.41 1009.62 1010.76 1012.11 1013.81 1014.75
1014.75 1013.65 1011.34 1009.73 1007.89 1007.77 1007.40 1006.30 1006.32 1005.75 1005.00 1004.01 1003.71 1002.68 1002.22 1002.19 1001.39 1000.74 1000.05 999.23 998.34 997.05 996.03 995.70 995.38 995.39 996.54 997.18 997.77 998.58 999.19 999.95 1000.74 1002.09 1003.44 1004.64 1005.71 1006.93 1008.05 1009.38 1011.01 1012.47 1013.76 1015.72
1013.96 1012.72 1010.65 1008.17 1006.12 1006.81 1006.95 1006.24 1005.14 1005.05 1004.52 1004.09 1003.80 1003.07 1001.90 1001.79 1001.16 1000.57 999.94 998.87 998.23 996.99 995.93 994.84 994.24 994.84 995.90 996.47 996.61 997.33 998.42 999.08 1000.15 1001.59 1002.90 1004.05 1005.27 1006.73 1008.13 1009.03 1010.70 1012.34 1014.00 1015.22
1012.54 1011.54 1009.22 1006.65 1005.88 1006.77 1006.80 1004.82 1003.34 1003.83 1003.79 1003.72 1003.51 1002.92 1001.59 1001.57 1001.18 1000.76 1000.19 998.63 997.03 995.94 994.97 993.73 993.34 994.03 994.87 995.68 996.13 996.67 998.05 999.30 1000.37 1001.34 1002.80 1003.88 1005.20 1006.73 1008.01 1009.16 1010.53 1012.41 1013.57 1014.84
1011.32 1010.25 1008.08 1005.44 1005.73 1005.88 1003.73 1003.49 1003.54 1003.40 1003.15 1002.96 1002.44 1002.06 1001.37 1000.63 1000.16 999.98 999.28 998.02 997.02 996.50 995.24 993.61 992.57 993.04 993.78 994.32 994.77 996.18 997.54 999.23 1000.18 1001.32 1002.59 1003.59 1004.65 1006.78 1008.00 1009.42 1010.59 1012.10 1013.63 1015.07
1008.56 1006.72 1005.08 1004.28 1003.66 1003.29 1003.42 1003.44 1002.98 1002.96 1002.30 1002.04 1001.65 1001.28 1000.71 1000.04 999.53 999.29 998.69 997.94 996.74 996.18 995.58 993.60 991.76 991.55 992.53 993.28 994.87 996.35 997.64 998.75 999.78 1000.89 1002.54 1003.73 1004.21 1006.25 1007.33 1009.35 1010.53 1012.12 1013.67 1015.34
1007.06 1004.94 1004.03 1003.89 1003.39 1002.92 1002.75 1002.39 1001.88 1001.56 1001.27 1001.02 1000.61 1000.20 999.97 999.41 999.27 999.04 998.18 997.70 997.42 996.10 996.85 996.03 992.92 991.99 992.46 993.74 995.10 996.18 997.62 999.01 1000.37 1001.26 1002.50 1003.79 1004.68 1006.21 1007.28 1008.62 1010.54 1012.11 1013.73 1015.12
1005.34 1003.49 1003.32 1003.12 1002.56 1001.97 1001.43 1001.19 1001.07 1000.62 1000.23 999.98 999.77 999.37 999.19 998.65 998.15 997.81 997.65 997.81 997.61 997.66 998.80 997.74 995.88 993.26 993.72 994.67 996.07 997.83 999.24 1000.15 1000.99 1002.25 1003.14 1004.34 1005.45 1006.33 1007.38 1009.32 1010.47 1012.12 1013.46 1014.40
1003.44 1002.45 1002.70 1001.75 1001.17 1000.65 1000.44 1000.04 999.80 999.89 999.43 999.02 998.87 998.46 998.29 997.86 997.62 997.35 997.26 997.67 997.52 997.56 998.54 998.09 997.96 995.83 995.77 995.92 996.20 997.56 999.95 1001.49 1001.71 1002.28 1003.59 1005.02 1005.81 1007.50 1008.95 1009.98 1011.25 1012.41 1013.33 1014.05
1002.70 1001.68 1001.78 1001.07 999.91 999.41 999.79 999.09 999.01 998.90 998.59 998.30 998.05 998.15 998.04 997.30 996.61 996.36 996.51 997.29 997.89 998.12 998.44 999.34 998.39 998.05 997.71 997.74 998.49 998.93 999.56 1001.31 1002.27 1003.26 1003.79 1005.41 1006.88 1008.42 1009.73 1011.09 1011.85 1012.79 1013.40 1014.02
1001.56 1001.21 1001.10 1000.04 999.45 998.65 998.69 998.33 998.19 997.86 997.61 997.43 997.37 997.24 997.23 997.07 996.42 996.37 997.24 997.69 998.07 998.93 999.00 999.11 998.63 999.19 999.57 999.51 999.86 1000.69 1000.75 1002.21 1003.09 1004.09 1005.23 1006.65 1007.54 1008.90 1009.97 1011.04 1012.01 1013.15 1013.84 1014.36
1000.70 1000.38 1000.07 999.09 998.60 998.16 997.86 997.49 997.30 997.02 996.80 996.76 996.74 996.84 997.10 997.29 997.62 997.78 998.16 998.67 999.09 999.59 999.74 999.65 999.63 1000.06 1000.36 1000.76 1001.23 1002.06 1002.45 1003.09 1004.13 1005.33 1006.47 1007.40 1008.30 1009.16 1010.39 1011.35 1012.32 1013.38 1014.24 1014.86
1000.17 999.89 999.54 999.04 997.99 997.40 997.11 996.55 996.43 996.06 996.09 996.00 996.21 996.61 997.24 997.83 998.28 998.60 999.21 999.32 999.90 1000.32 1000.18 1000.36 1000.68 1001.15 1001.39 1001.50 1002.40 1003.11 1003.81 1004.46 1005.36 1006.25 1007.18 1008.13 1008.98 1009.80 1010.71 1011.70 1012.63 1013.54 1014.32 1014.93
1000.46 999.77 999.30 998.72 998.10 997.25 996.37 995.46 995.18 995.08 995.14 995.57 996.03 996.77 997.69 998.41 998.91 999.30 999.66 999.86 1000.10 1000.60 1000.84 1001.37 1001.72 1002.13 1002.31 1002.49 1003.17 1004.20 1004.93 1005.66 1006.29 1007.02 1007.78 1008.55 1009.30 1010.07 1010.89 1011.68 1012.44 1013.30 1013.94 1014.38
1001.30 1000.52 999.78 998.65 997.46 996.46 995.59 995.17 995.12 994.90 995.01 995.56 996.47 997.32 997.76 998.55 999.51 1000.07 1000.16 1000.79 1001.12 1001.69 1002.16 1002.43 1002.76 1003.29 1003.61 1003.81 1004.23 1004.83 1005.65 1006.41 1007.09 1007.73 1008.39 1009.03 1009.70 1010.34 1011.04 1011.73 1012.49 1013.15 1013.71 1014.29
1000.99 1000.01 999.13 997.58 996.44 996.11 996.24 995.94 995.98 995.95 996.23 996.58 997.16 998.08 998.78 999.66 1000.23 1000.75 1001.11 1001.66 1002.13 1002.72 1003.43 1003.27 1003.82 1004.23 1004.54 1004.88 1005.17 1005.69 1006.35 1007.02 1007.78 1008.47 1009.01 1009.56 1010.31 1010.86 1011.46 1012.08 1012.63 1013.17 1013.75 1014.28
1001.20 1000.63 999.76 999.11 998.01 997.81 997.50 997.35 997.56 997.60 998.06 998.27 998.88 999.59 1000.25 1000.83 1001.30 1001.81 1002.46 1003.02 1003.30 1003.68 1003.85 1004.32 1004.66 1005.23 1005.69 1006.03 1006.23 1006.58 1007.05 1007.58 1008.35 1009.04 1009.48 1010.11 1010.80 1011.48 1012.00 1012.44 1012.90 1013.37 1013.74 1014.01
1001.96 1001.44 1000.98 1000.37 999.89 999.61 999.39 999.40 999.33 999.78 1000.22 1000.47 1000.80 1001.51 1002.08 1002.72 1002.89 1003.13 1003.67 1004.45 1005.12 1004.91 1005.24 1005.49 1006.06 1006.59 1006.93 1007.08 1007.29 1007.69 1008.07 1008.51 1009.07 1009.65 1010.28 1010.97 1011.63 1012.19 1012.63 1013.03 1013.39 1013.65 1013.89 1014.06
1002.79 1002.63 1002.27 1001.90 1001.51 1001.41 1001.24 1001.21 1001.35 1001.70 1002.05 1002.37 1002.72 1003.25 1003.68 1004.03 1004.31 1004.88 1005.63 1006.03 1006.42 1006.31 1006.55 1006.87 1007.31 1007.57 1007.64 1007.79 1008.29 1008.79 1009.38 1009.98 1010.55 1010.97 1011.42 1011.93 1012.42 1012.89 1013.25 1013.59 1013.92 1014.20 1014.39 1014.16
1004.01 1003.76 1003.52 1003.27 1003.12 1003.15 1003.09 1003.31 1003.54 1003.69 1003.91 1004.33 1004.80 1005.19 1005.39 1006.14 1006.61 1006.96 1007.66 1008.42 1008.16 1008.41 1008.79 1009.24 1009.10 1009.23 1009.34 1009.73 1010.24 1010.66 1011.10 1011.64 1012.16 1012.51 1012.81 1013.12 1013.47 1013.84 1014.19 1014.39 1014.53 1014.71 1014.92 1014.71
1005.21 1005.06 1004.91 1004.87 1004.74 1004.66 1005.05 1005.72 1005.80 1006.12 1006.33 1006.48 1006.78 1007.36 1007.64 1008.19 1008.83 1009.52 1009.82 1009.79 1009.84 1010.12 1010.70 1011.08 1011.20 1011.36 1011.48 1011.89 1012.28 1012.62 1012.94 1013.20 1013.54 1013.84 1013.96 1014.12 1014.45 1014.55 1014.77 1015.06 1015.31 1014.93 1014.92 1014.89
1006.39 1006.42 1006.49 1006.42 1006.36 1006.73 1007.00 1007.53 1007.78 1008.09 1008.11 1008.44 1008.95 1009.48 1009.76 1010.18 1010.20 1011.27 1011.29 1011.57 1011.74 1012.05 1012.73 1012.97 1013.12 1013.23 1013.47 1013.75 1014.06 1014.27 1014.56 1014.87 1015.04 1015.18 1015.35 1015.42 1015.55 1015.66 1015.53 1015.40 1015.38 1015.33 1015.22 1015.27
1007.56 1007.75 1008.01 1008.14 1008.28 1008.51 1008.82 1009.03 1009.30 1009.89 1010.05 1010.48 1011.18 1011.51 1011.81 1012.09 1012.32 1012.58 1013.13 1013.50 1013.81 1014.17 1014.75 1015.19 1015.20 1015.28 1015.62 1015.91 1016.02 1016.15 1016.19 1016.17 1016.25 1016.37 1016.53 1016.51 1016.43 1016.35 1016.16 1016.01 1016.03 1015.92 1015.80 1015.72
1008.89 1009.14 1009.45 1009.67 1009.92 1010.16 1010.41 1010.75 1011.13 1011.80 1012.18 1012.55 1013.12 1014.03 1014.12 1014.32 1014.74 1015.09 1015.42 1015.57 1015.88 1016.32 1016.80 1016.96 1017.03 1017.19 1017.35 1017.38 1017.36 1017.26 1017.14 1017.17 1017.08 1017.01 1017.07 1017.11 1016.94 1016.80 1016.73 1016.55 1016.39 1016.33 1016.26 1015.95
Thickness
5510 5510 5503 5502 5515 5524 5516 5527 5514 5545 5539 5568 5602 5617 5611 5618 5628 5639 5654 5672 5686 5691 5692 5698 5697 5703 5707 5705 5705 5702 5696 5688 5682 5675 5665 5654 5645 5638 5631 5616 5612 5597 5571 5578
5487 5500 5498 5495 5516 5517 5516 5524 5517 5527 5536 5564 5581 5605 5600 5610 5622 5631 5641 5653 5672 5674 5679 5680 5677 5685 5690 5689 5690 5692 5686 5677 5665 5659 5652 5643 5631 5623 5614 5602 5588 5583 5565 5553
5465 5485 5480 5472 5516 5507 5517 5523 5522 5522 5542 5564 5563 5585 5587 5594 5601 5615 5627 5639 5652 5663 5668 5672 5677 5679 5680 5681 5679 5677 5672 5668 5659 5649 5640 5633 5621 5607 5594 5586 5577 5564 5548 5543
5453 5458 5449 5507 5514 5512 5510 5519 5518 5522 5540 5552 5553 5568 5577 5576 5581 5598 5606 5617 5636 5651 5655 5657 5662 5668 5670 5670 5669 5667 5661 5654 5649 5639 5628 5619 5609 5597 5584 5571 5563 5550 5533 5521
5440 5448 5471 5489 5516 5506 5500 5506 5516 5517 5529 5539 5539 5555 5561 5559 5569 5575 5588 5602 5615 5634 5650 5652 5655 5669 5664 5662 5660 5656 5654 5649 5642 5631 5618 5606 5595 5584 5573 5562 5548 5535 5523 5505
5407 5437 5431 5496 5522 5505 5489 5462 5511 5512 5517 5518 5520 5520 5546 5550 5558 5563 5570 5588 5600 5619 5632 5649 5660 5657 5653 5654 5656 5653 5647 5642 5633 5620 5610 5598 5585 5571 5557 5551 5537 5522 5508 5498
5440 5436 5458 5503 5510 5489 5462 5487 5518 5507 5505 5510 5509 5516 5539 5541 5546 5551 5557 5575 5597 5611 5625 5646 5655 5651 5649 5648 5648 5645 5632 5625 5614 5607 5596 5586 5573 5557 5546 5536 5526 5509 5500 5489
5423 5434 5440 5504 5488 5471 5502 5506 5502 5498 5502 5501 5508 5514 5527 5538 5544 5547 5554 5567 5577 5587 5607 5632 5646 5645 5646 5646 5644 5632 5623 5609 5601 5593 5583 5574 5563 5543 5533 5520 5512 5499 5485 5472
5445 5445 5484 5491 5495 5493 5491 5489 5493 5490 5497 5496 5502 5509 5519 5529 5537 5542 5549 5554 5568 5574 5585 5616 5641 5644 5639 5639 5626 5614 5604 5596 5591 5581 5569 5558 5552 5536 5527 5510 5498 5484 5470 5455
5451 5478 5487 5486 5488 5491 5492 5490 5494 5493 5495 5497 5500 5507 5510 5520 5527 5531 5538 5544 5548 5563 5561 5569 5604 5627 5624 5612 5605 5598 5588 5578 5570 5563 5554 5542 5534 5522 5513 5501 5484 5469 5455 5443
5449 5476 5479 5476 5481 5486 5490 5490 5489 5491 5491 5491 5492 5501 5501 5513 5523 5529 5531 5530 5533 5534 5529 5540 5562 5588 5588 5585 5578 5566 5557 5552 5548 5540 5532 5523 5514 5506 5496 5477 5467 5453 5442 5434
5451 5469 5450 5470 5476 5479 5480 5487 5489 5482 5486 5488 5485 5496 5497 5507 5515 5525 5530 5517 5520 5515 5513 5529 5529 5552 5557 5560 5561 5554 5535 5525 5526 5522 5513 5502 5496 5476 5464 5454 5444 5435 5428 5423
5448 5462 5453 5461 5478 5483 5473 5481 5479 5477 5479 5481 5485 5482 5488 5503 5517 5523 5521 5512 5506 5503 5502 5497 5511 5522 5529 5532 5529 5528 5525 5512 5504 5498 5496 5481 5467 5453 5442 5430 5424 5417 5413 5410
5448 5451 5443 5462 5463 5472 5468 5471 5469 5475 5477 5473 5476 5480 5486 5497 5504 5502 5501 5499 5495 5488 5489 5493 5500 5499 5500 5505 5504 5500 5502 5487 5481 5472 5463 5454 5446 5431 5424 5417 5410 5400 5397 5394
5448 5446 5444 5457 5460 5461 5462 5464 5463 5467 5469 5469 5472 5475 5474 5477 5476 5476 5477 5476 5475 5473 5474 5478 5482 5481 5481 5481 5479 5475 5474 5467 5459 5448 5437 5430 5424 5418 5408 5401 5395 5387 5383 5380
5444 5442 5441 5438 5449 5455 5454 5457 5454 5462 5463 5467 5466 5466 5459 5459 5459 5460 5458 5462 5462 5459 5467 5467 5465 5463 5462 5464 5459 5454 5448 5443 5437 5431 5423 5415 5410 5404 5398 5391 5384 5379 5374 5369
5426 5431 5432 5432 5436 5440 5450 5458 5460 5462 5459 5456 5455 5451 5447 5445 5445 5446 5447 5449 5451 5449 5448 5445 5444 5443 5443 5443 5437 5431 5426 5422 5419 5414 5409 5404 5399 5393 5388 5383 5378 5372 5366 5362
5408 5411 5416 5424 5433 5442 5450 5449 5450 5455 5453 5449 5443 5437 5441 5438 5434 5433 5434 5432 5433 5430 5427 5426 5425 5422 5422 5423 5421 5417 5412 5407 5403 5399 5395 5392 5388 5383 5377 5371 5367 5362 5355 5352
5403 5409 5412 5427 5436 5437 5431 5433 5434 5434 5432 5430 5429 5425 5423 5422 5422 5421 5421 5418 5417 5414 5409 5413 5408 5406 5406 5405 5405 5403 5399 5395 5389 5385 5381 5377 5371 5367 5363 5358 5354 5349 5343 5336
5392 5392 5398 5402 5410 5412 5412 5415 5413 5412 5408 5409 5408 5407 5409 5410 5408 5406 5403 5400 5401 5399 5400 5397 5396 5392 5389 5388 5388 5387 5385 5383 5377 5371 5368 5362 5357 5351 5345 5341 5337 5332 5328 5325
5378 5380 5381 5385 5389 5392 5394 5394 5393 5388 5386 5387 5389 5388 5387 5386 5389 5392 5390 5385 5380 5385 5383 5382 5380 5375 5373 5373 5374 5371 5370 5366 5362 5357 5352 5346 5339 5333 5330 5326 5322 5317 5316 5314
5367 5365 5366 5370 5375 5377 5379 5379 5375 5371 5371 5372 5372 5371 5372 5373 5374 5371 5367 5368 5366 5368 5367 5365 5362 5360 5361 5361 5358 5354 5350 5345 5341 5337 5334 5328 5322 5316 5311 5308 5305 5302 5299 5296
5358 5357 5358 5361 5364 5363 5364 5362 5359 5359 5359 5357 5356 5355 5356 5354 5352 5353 5348 5343 5346 5345 5342 5339 5341 5340 5340 5337 5333 5329 5327 5321 5316 5312 5309 5307 5304 5300 5295 5291 5284 5279 5274 5271
5350 5348 5348 5347 5350 5351 5347 5342 5343 5342 5341 5342 5340 5337 5337 5333 5329 5326 5324 5326 5327 5325 5321 5318 5316 5314 5313 5309 5305 5302 5298 5295 5291 5287 5284 5280 5276 5272 5268 5262 5260 5256 5252 5249
5342 5340 5338 5338 5339 5336 5335 5331 5328 5326 5328 5326 5323 5319 5318 5314 5315 5308 5309 5307 5306 5303 5296 5294 5292 5291 5288 5285 5281 5278 5274 5269 5265 5261 5257 5254 5249 5244 5242 5241 5238 5235 5232 5228
5334 5332 5328 5326 5324 5323 5321 5319 5316 5312 5312 5309 5303 5302 5299 5296 5295 5294 5289 5285 5282 5279 5273 5268 5267 5265 5260 5255 5252 5249 5247 5245 5241 5237 5231 5228 5225 5223 5220 5218 5213 5210 5207 5203
5322 5319 5316 5315 5313 5311 5309 5307 5304 5299 5296 5293 5287 5279 5278 5276 5272 5269 5265 5263 5260 5255 5249 5246 5243 5239 5235 5232 5230 5228 5225 5221 5218 5215 5209 5204 5201 5198 5194 5191 5188 5183 5179 5176